"Pseudo-MPEC" for C1FVXQ5

Created 2026 Aug 26 0:35:05 UT using Find_Orb

Click here for an explanation of pseudo-MPECs

 
 Astrometry: 
     C1FVXQ5*1C2026 08 23.29189222 26 50.384-00 03 15.80   ~8OFox21.11GVNEOCPV00
     C1FVXQ5 1C2026 08 23.29898022 27 11.560-00 04 06.17   ~8OFo 19.83GVNEOCPV00
     C1FVXQ5 1C2026 08 23.30718522 27 36.068-00 05 04.99   ~8OFo 20.35GVNEOCPV00
     C1FVXQ5 1C2026 08 23.31338322 27 54.504-00 05 48.84   ~8OFo 19.93GVNEOCPV00
     C1FVXQ5 0C2026 08 23.33369022 28 53.680-00 08 10.80   ~8OFo 19.2 RVNEOCP291
     C1FVXQ5 0C2026 08 23.33503022 28 57.570-00 08 19.90   ~8OFo 19.2 RVNEOCP291
     C1FVXQ5 0C2026 08 23.33639022 29 01.510-00 08 29.10   ~8OFo 19.9 RVNEOCP291
     C1FVXQ5 0C2026 08 23.39933022 32 01.256-00 15 44.24   ~8OFo 19.93rUNEOCPI41
     C1FVXQ5 KC2026 08 24.26515023 01 34.56 -01 21 16.1    ~8OFo 20.8 GVNEOCPH21
     C1FVXQ5 KC2026 08 24.27774323 01 50.41 -01 21 54.6    ~8OFo 20.4 GVNEOCPH21
     C1FVXQ5 KB2026 08 24.97086 23 14 43.51 -01 50 36.1    ~8PAK 20.6 GXNEOCPL04
     C1FVXQ5 KB2026 08 25.00609 23 15 11.10 -01 51 43.6    ~8PAK 20.4 GXNEOCPL04
     C1FVXQ5 KC2026 08 25.23598423 18 27.42 -01 58 02.6    ~8P8K 21.3 GVNEOCPH21
     C1FVXQ5 KC2026 08 25.23887223 18 29.34 -01 58 07.6    ~8P8K 21.4 GVNEOCPH21
     C1FVXQ5 KC2026 08 25.24176023 18 31.27 -01 58 12.3    ~8P8K 21.4 GVNEOCPH21
     C1FVXQ5 DC2026 08 25.31749 23 19 27.34 -01 59 44.0    ~8P8Z 21.5 GVNEOCP695
     C1FVXQ5 DC2026 08 25.32149 23 19 29.84 -01 59 50.3    ~8P8Z 21.7 GVNEOCP695
     C1FVXQ5 DC2026 08 25.32549 23 19 32.29 -01 59 56.8    ~8P8Z 22.0 GVNEOCP695

Station data:
(291) LPL/Spacewatch II  (N31.961669 W111.599905)  US/Arizona.  Observers J.
   V. Scotti, R. S. McMillan. 1.8-m f/2.7 reflector + CCD.
(695) Kitt Peak  (N31.958395 W111.594670)  US/Arizona. Measurer S. Deen.
   2.3-m f/9 reflector + CCD.
(H21) Astronomical Research Observatory, Westfield  (N39.483054 W87.968270)
   US/Illinois.  Observer R. Holmes. Measurers S. Foglia, L. Buzzi, T.
   Linder, R. Holmes. 0.40-m f/5.32 astrograph + CCD.
(I41) Palomar Mountain--ZTF  (N33.357336 W116.859780)  US/California.
   Observers B. T. Bolin, Z. T. F. Collaboration. Measurers B. T. Bolin,
   Z.-Y. Lin, F. J. Masci. 1.2-m f/2.4 Schmidt.
(L04) ROASTERR-1 Observatory, Cluj-Napoca  (N46.820952 E23.596400)  Romania.
   Observer L. Hudin. 0.1-m f/9 refractor + CCD.
(V00) Kitt Peak-Bok  (N31.963125 W111.600190)  US/Arizona. Measurers T.
   Beuden, V. F. Carvajal, D. Fay, J. B. Fazekas, D. C. Fuls, A. R. Gibbs, A.
   D. Grauer, H. Gröller, J. K. Hogan, R. A. Kowalski, S. M. Larson, G. J.
   Leonard, D. Rankin, R. L. Seaman, F. C. Shelly, K. W. Wierzchoś. 2.25-m
   reflector + 4x4K mosaic CCD.

Orbital elements:  C1FVXQ5
   Perihelion 2026 Jul 22.486956 +/- 0.0196 TT = 11:41:12.9 (JD 2461243.986956)
Epoch 2026 Aug 25.0 TT = JDT 2461277.5   Earth MOID: 0.0031   Ju: 0.5743
M   7.153710549 +/- 0.06            Ma: 0.0082                   AutoNEOCP
n   0.213460481 +/- 0.00191         Peri.  132.336184 +/- 0.008
a   2.772837331 +/- 0.0163          Node   154.718979 +/- 0.0016
e   0.67022798 +/- 0.00204          Incl.    1.423921 +/- 0.0031
P   4.61728                H 28.50  G  0.15   U  8.5
q 0.914404166 +/- 0.000202    Q 4.631270495 +/- 0.0329    (J2000 ecliptic)
17 of 18 observations 2026 Aug. 23-25; mean residual 0".48
Residuals in arcseconds: 
260823 V00( 3.3+  .91-)   260823 291  .87-  .49+    260825 H21  .04-  .08+    
260823 V00  .58+  .18-    260823 I41  .42+  .26-    260825 H21  .12-  .04-    
260823 V00  .53+  .32-    260824 H21  .17+  .10+    260825 H21  .02+  .12+    
260823 V00  1.5+  .17-    260824 H21  .23-  .28+    260825 695  .01+  .34-    
260823 291  1.3-  .10+    260824 L04  .36+  .25+    260825 695  .11+  .16-    
260823 291  1.1-  .28+    260825 L04  .08+  .08+    260825 695  .43-  .19-    

Ephemerides (geocentric):
Date (UTC) HH   RA             Dec           delta  r     elong  mag " sig PA
---- --------  ------------   ------------  ------ ------ -----  --- --------
2026 08 26 01  23 26 48.146   -02 13 35.22  .03328 1.0422 160.9 22.2 .581 152
2026 08 26 02  23 27 09.372   -02 14 23.38  .03359 1.0424 160.9 22.2 .582 152
2026 08 26 03  23 27 30.205   -02 15 10.66  .03391 1.0427 160.9 22.2 .584 151
2026 08 26 04  23 27 50.655   -02 15 57.10  .03422 1.0430 160.8 22.2 .586 151
2026 08 26 05  23 28 10.732   -02 16 42.72  .03453 1.0433 160.8 22.2 .588 150
2026 08 26 06  23 28 30.445   -02 17 27.55  .03484 1.0436 160.8 22.3 .589 149
2026 08 26 07  23 28 49.805   -02 18 11.59  .03515 1.0438 160.8 22.3 .591 149
2026 08 26 08  23 29 08.820   -02 18 54.89  .03546 1.0441 160.7 22.3 .593 148
2026 08 26 09  23 29 27.500   -02 19 37.44  .03577 1.0444 160.7 22.3 .595 148
2026 08 26 10  23 29 45.852   -02 20 19.28  .03609 1.0447 160.7 22.3 .597 147
2026 08 26 11  23 30 03.885   -02 21 00.43  .03640 1.0450 160.7 22.4 .599 147
2026 08 26 12  23 30 21.607   -02 21 40.89  .03671 1.0452 160.6 22.4 .601 146
2026 08 26 13  23 30 39.026   -02 22 20.69  .03702 1.0455 160.6 22.4 .603 146
2026 08 26 14  23 30 56.149   -02 22 59.85  .03733 1.0458 160.6 22.4 .606 145
2026 08 26 15  23 31 12.984   -02 23 38.38  .03765 1.0461 160.6 22.4 .608 145
2026 08 26 16  23 31 29.537   -02 24 16.30  .03796 1.0464 160.6 22.5 .610 145
2026 08 26 17  23 31 45.815   -02 24 53.62  .03827 1.0467 160.5 22.5 .612 144
2026 08 26 18  23 32 01.825   -02 25 30.36  .03858 1.0469 160.5 22.5 .614 144
2026 08 26 19  23 32 17.573   -02 26 06.53  .03890 1.0472 160.5 22.5 .616 143
2026 08 26 20  23 32 33.065   -02 26 42.14  .03921 1.0475 160.5 22.5 .619 143
2026 08 26 21  23 32 48.307   -02 27 17.22  .03952 1.0478 160.5 22.5 .621 142
2026 08 26 22  23 33 03.305   -02 27 51.77  .03983 1.0481 160.5 22.6 .623 142
2026 08 26 23  23 33 18.064   -02 28 25.80  .04015 1.0484 160.5 22.6 .625 142
2026 08 27 00  23 33 32.591   -02 28 59.33  .04046 1.0486 160.4 22.6 .628 141
2026 08 27 01  23 33 46.889   -02 29 32.37  .04077 1.0489 160.4 22.6 .630 141
2026 08 27 02  23 34 00.965   -02 30 04.93  .04109 1.0492 160.4 22.6 .632 140
2026 08 27 03  23 34 14.823   -02 30 37.02  .04140 1.0495 160.4 22.7 .635 140
2026 08 27 04  23 34 28.469   -02 31 08.66  .04171 1.0498 160.4 22.7 .637 140
2026 08 27 05  23 34 41.905   -02 31 39.84  .04203 1.0501 160.4 22.7 .639 139
2026 08 27 06  23 34 55.139   -02 32 10.60  .04234 1.0504 160.4 22.7 .641 139
2026 08 27 07  23 35 08.172   -02 32 40.92  .04265 1.0506 160.4 22.7 .644 139
2026 08 27 08  23 35 21.011   -02 33 10.83  .04297 1.0509 160.4 22.7 .646 138
2026 08 27 09  23 35 33.659   -02 33 40.33  .04328 1.0512 160.4 22.8 .648 138
2026 08 27 10  23 35 46.119   -02 34 09.43  .04359 1.0515 160.4 22.8 .650 138
2026 08 27 11  23 35 58.397   -02 34 38.14  .04391 1.0518 160.4 22.8 .653 137
2026 08 27 12  23 36 10.495   -02 35 06.46  .04422 1.0521 160.4 22.8 .655 137
2026 08 27 13  23 36 22.418   -02 35 34.42  .04453 1.0524 160.4 22.8 .657 137
2026 08 27 14  23 36 34.170   -02 36 02.01  .04485 1.0526 160.4 22.8 .660 137
2026 08 27 15  23 36 45.752   -02 36 29.24  .04516 1.0529 160.4 22.9 .662 136
2026 08 27 16  23 36 57.170   -02 36 56.12  .04548 1.0532 160.4 22.9 .664 136
2026 08 27 17  23 37 08.426   -02 37 22.67  .04579 1.0535 160.4 22.9 .666 136
2026 08 27 18  23 37 19.524   -02 37 48.87  .04610 1.0538 160.4 22.9 .669 135
2026 08 27 19  23 37 30.466   -02 38 14.75  .04642 1.0541 160.4 22.9 .671 135
2026 08 27 20  23 37 41.256   -02 38 40.31  .04673 1.0544 160.4 22.9 .673 135
2026 08 27 21  23 37 51.897   -02 39 05.55  .04705 1.0547 160.4 22.9 .675 135
2026 08 27 22  23 38 02.392   -02 39 30.48  .04736 1.0550 160.4 23.0 .677 134
2026 08 27 23  23 38 12.743   -02 39 55.11  .04768 1.0552 160.4 23.0 .680 134
2026 08 28 00  23 38 22.953   -02 40 19.45  .04799 1.0555 160.4 23.0 .682 134